TimeMDT,TemperatureF,Dew PointF,Humidity,Sea Level PressureIn,VisibilityMPH,Wind Direction,Wind SpeedMPH,Gust SpeedMPH,PrecipitationIn,Events,Conditions,WindDirDegrees,DateUTC
12:17 AM,48.2,48.2,100,29.80,2.0,West,6.9,-,0.19,Rain,Heavy Rain,280,2013-06-03 06:17:00
12:54 AM,48.0,46.9,96,29.74,4.0,Calm,Calm,-,0.35,Rain,Rain,0,2013-06-03 06:54:00
1:32 AM,48.2,46.4,93,29.78,4.0,West,8.1,-,0.12,Rain,Rain,280,2013-06-03 07:32:00
1:54 AM,48.0,46.9,96,29.73,10.0,West,8.1,-,0.14,Rain,Light Rain,270,2013-06-03 07:54:00
2:08 AM,48.2,46.4,93,29.77,10.0,West,8.1,-,0.00,Rain,Light Rain,260,2013-06-03 08:08:00
2:46 AM,46.4,46.4,100,29.75,8.0,WNW,10.4,-,0.03,Rain,Light Rain,300,2013-06-03 08:46:00
2:54 AM,46.9,46.0,97,29.70,7.0,WNW,10.4,-,0.03,Rain,Light Rain,300,2013-06-03 08:54:00
3:33 AM,46.4,44.6,93,29.75,2.0,West,19.6,26.5,0.08,Rain,Rain,280,2013-06-03 09:33:00
3:47 AM,46.4,44.6,93,29.75,3.0,West,17.3,25.3,0.10,Rain,Light Rain,280,2013-06-03 09:47:00
3:54 AM,46.0,44.1,93,29.71,4.0,WNW,19.6,27.6,0.11,Rain,Light Rain,290,2013-06-03 09:54:00
4:50 AM,44.6,42.8,93,29.73,4.0,West,17.3,31.1,0.05,Rain,Rain,280,2013-06-03 10:50:00
4:54 AM,45.0,43.0,93,29.72,4.0,West,20.7,28.8,0.05,Rain,Light Rain,280,2013-06-03 10:54:00
5:22 AM,44.6,42.8,93,29.73,7.0,West,21.9,33.4,0.02,Rain,Light Rain,280,2013-06-03 11:22:00
5:54 AM,44.1,42.1,93,29.72,8.0,WNW,24.2,33.4,0.07,Rain,Light Rain,290,2013-06-03 11:54:00
6:54 AM,43.0,41.0,93,29.72,6.0,West,20.7,28.8,0.12,Rain,Rain,280,2013-06-03 12:54:00
7:33 AM,42.8,41.0,93,29.73,10.0,West,20.7,32.2,0.04,Rain,Light Rain,280,2013-06-03 13:33:00
7:54 AM,43.0,39.9,89,29.71,10.0,West,24.2,32.2,0.06,Rain,Light Rain,270,2013-06-03 13:54:00
8:12 AM,42.8,41.0,93,29.72,10.0,West,23.0,29.9,0.01,Rain,Light Rain,280,2013-06-03 14:12:00
8:33 AM,44.6,42.8,93,29.71,9.0,West,25.3,35.7,0.03,Rain,Light Rain,280,2013-06-03 14:33:00
8:54 AM,44.1,43.0,96,29.70,7.0,West,25.3,33.4,0.05,Rain,Light Rain,280,2013-06-03 14:54:00
9:47 AM,42.8,42.8,100,29.71,9.0,WNW,18.4,25.3,0.08,Rain,Light Rain,300,2013-06-03 15:47:00
9:54 AM,43.0,41.0,93,29.70,8.0,WNW,18.4,25.3,0.09,Rain,Light Rain,300,2013-06-03 15:54:00
10:54 AM,43.0,42.1,97,29.73,6.0,WNW,25.3,33.4,0.07,Rain,Light Rain,300,2013-06-03 16:54:00
11:27 AM,42.8,41.0,93,29.74,4.0,WNW,18.4,24.2,0.07,Rain,Rain,300,2013-06-03 17:27:00
11:46 AM,42.8,39.2,87,29.75,6.0,WNW,17.3,25.3,0.12,Rain,Light Rain,300,2013-06-03 17:46:00
11:54 AM,43.0,41.0,93,29.75,10.0,WNW,15.0,-,0.13,Rain,Light Rain,300,2013-06-03 17:54:00
12:54 PM,39.9,37.9,93,29.81,6.0,NW,18.4,28.8,0.07,Rain,Light Rain,320,2013-06-03 18:54:00
1:25 PM,39.2,37.4,93,29.82,8.0,WNW,23.0,35.7,0.04,Rain,Light Rain,300,2013-06-03 19:25:00
1:54 PM,39.9,37.9,93,29.85,10.0,NW,19.6,29.9,0.05,Rain,Light Rain,310,2013-06-03 19:54:00
2:54 PM,41.0,39.0,93,29.89,10.0,NW,21.9,34.5,0.02,Rain,Light Rain,310,2013-06-03 20:54:00
3:05 PM,41.0,39.2,93,29.89,10.0,NW,23.0,35.7,0.00,Rain,Light Rain,310,2013-06-03 21:05:00
3:14 PM,42.8,39.2,87,29.89,10.0,NW,21.9,35.7,0.00,Rain,Light Rain,320,2013-06-03 21:14:00
3:22 PM,42.8,39.2,87,29.90,10.0,NW,18.4,32.2,0.00,Rain,Light Rain,320,2013-06-03 21:22:00
3:28 PM,42.8,39.2,87,29.90,10.0,NW,19.6,32.2,0.00,Rain,Light Rain,310,2013-06-03 21:28:00
3:46 PM,41.0,39.2,93,29.91,8.0,NW,19.6,35.7,0.02,Rain,Light Rain,320,2013-06-03 21:46:00
3:54 PM,41.0,39.0,93,29.93,9.0,NW,19.6,32.2,0.02,Rain,Light Rain,310,2013-06-03 21:54:00
4:54 PM,41.0,37.9,89,29.98,10.0,NW,19.6,27.6,0.01,Rain,Light Rain,310,2013-06-03 22:54:00
5:54 PM,41.0,39.0,93,30.01,10.0,NW,13.8,19.6,0.00,Rain,Light Rain,310,2013-06-03 23:54:00
6:15 PM,41.0,39.2,93,30.00,10.0,NW,13.8,21.9,0.00,,Overcast,320,2013-06-04 00:15:00
6:29 PM,41.0,37.4,87,30.00,10.0,NW,16.1,26.5,0.00,,Overcast,320,2013-06-04 00:29:00
6:54 PM,41.0,37.9,89,30.04,10.0,NW,8.1,16.1,0.00,,Overcast,310,2013-06-04 00:54:00
7:04 PM,41.0,39.2,93,30.01,10.0,NW,12.7,18.4,N/A,,Overcast,310,2013-06-04 01:04:00
7:36 PM,42.8,39.2,87,30.03,10.0,NW,15.0,20.7,0.00,,Overcast,310,2013-06-04 01:36:00
7:54 PM,41.0,37.9,89,30.07,10.0,WNW,19.6,23.0,0.00,Rain,Light Rain,300,2013-06-04 01:54:00
8:14 PM,39.2,39.2,100,30.04,10.0,NW,11.5,20.7,0.00,,Overcast,310,2013-06-04 02:14:00
8:34 PM,39.2,39.2,100,30.05,10.0,NW,12.7,-,0.01,Rain,Light Rain,310,2013-06-04 02:34:00
8:42 PM,39.2,37.4,93,30.05,10.0,WNW,19.6,24.2,0.01,,Overcast,300,2013-06-04 02:42:00
8:54 PM,39.9,37.0,89,30.09,10.0,WNW,18.4,26.5,0.01,,Overcast,300,2013-06-04 02:54:00
9:12 PM,39.2,37.4,93,30.07,10.0,WNW,13.8,23.0,N/A,,Overcast,300,2013-06-04 03:12:00
9:54 PM,39.0,37.9,96,30.12,10.0,WNW,12.7,23.0,N/A,,Overcast,300,2013-06-04 03:54:00
10:54 PM,39.0,37.9,96,30.13,10.0,WNW,15.0,-,0.01,Rain,Light Rain,300,2013-06-04 04:54:00
11:15 PM,39.2,37.4,93,30.10,10.0,WNW,11.5,-,0.00,,Overcast,300,2013-06-04 05:15:00
11:54 PM,39.0,37.9,96,30.15,10.0,WNW,9.2,-,0.00,,Overcast,300,2013-06-04 05:54:00